West Vancouver, British Columbia

6:40 AM PDT on July 21, 2017 (GMT -0700)
West Vancouver

Weather History for CWWA - October, 2011

Change the Weather History Date:

Saturday, October 22, 2011

  Actual Average Record
Temperature  
Mean Temperature 50 °F -  
Max Temperature 53 °F - - ()
Min Temperature 46 °F - - ()
Degree Days  
Heating Degree Days 16    
Moisture  
Dew Point 48 °F    
Average Humidity 91    
Maximum Humidity 97    
Minimum Humidity 78    
Precipitation  
Precipitation 0.24 in - - ()
Sea Level Pressure  
Sea Level Pressure 30.12 in    
Wind  
Wind Speed 2 mph ()    
Max Wind Speed 5 mph    
Max Gust Speed -    
T = Trace of Precipitation, MM = Missing Value Source: Averaged Metar Reports

Daily Weather History Graph

Daily Weather History Graph

Search for Another Location

Airport or City:

Trip Planner

Search our weather history database for the weather conditions in past years. The results will help you decide how hot, cold, wet, or windy it might be!

Date:

Astronomy

Oct. 22, 2011 Rise Set
Actual Time 7:44 AM PDT 6:09 PM PDT
Civil Twilight 7:11 AM PDT 6:41 PM PDT
Nautical Twilight 6:34 AM PDT 7:18 PM PDT
Astronomical Twilight 5:57 AM PDT 7:55 PM PDT
Moon 2:23 AM PDT (10/22) 3:50 PM PDT (10/22)
Length of Visible Light 11h 29m
Length of Day
10h 24m
Waning Crescent, 22% of the Moon is Illuminated
Oct 22
Waning Crescent
Oct 26
New
Nov 2
First Quarter
Nov 10
Full
Nov 18
Last Quarter

Hourly Weather History & Observations

Time (PDT) Temp. Dew Point Humidity Pressure Visibility Wind Dir Wind Speed Gust Speed Precip Events Conditions
12:00 AM 49.1 °F 47.5 °F 94% 30.19 in - NE 2.3 mph - N/A   Unknown
1:00 AM 49.3 °F 47.3 °F 93% 30.19 in - NE 2.3 mph - N/A   Unknown
3:00 AM 48.2 °F 46.9 °F 95% 30.19 in - NNE 2.3 mph - N/A   Unknown
4:00 AM 49.6 °F 45.3 °F 85% 30.15 in - East 3.5 mph - N/A   Unknown
5:00 AM 48 °F 46 °F 92% 30.15 in - North 1.2 mph - -  
7:00 AM 47.5 °F 46.6 °F 97% 30.13 in - NE 2.3 mph - 0.10 in   Unknown
8:00 AM 46.8 °F 45.9 °F 97% 30.14 in - North 2.3 mph - 0.07 in   Unknown
9:00 AM 47.3 °F 44.8 °F 91% 30.10 in - East 4.6 mph - 0.04 in   Unknown
10:00 AM 48.7 °F 47.1 °F 94% 30.13 in - SW 1.2 mph - N/A   Unknown
11:00 AM 49 °F 47 °F 92% 30.12 in - NW 1.2 mph - -  
11:00 AM 48.7 °F 47.5 °F 95% 30.12 in - NW 1.2 mph - N/A   Unknown
12:00 PM 49.6 °F 48.2 °F 95% 30.12 in - SW 1.2 mph - N/A   Unknown
1:00 PM 52.3 °F 49.5 °F 90% 30.11 in - East 1.2 mph - N/A   Unknown
2:00 PM 52.2 °F 49.1 °F 89% 30.10 in - NE 2.3 mph - N/A   Unknown
3:00 PM 53.1 °F 47.7 °F 82% 30.10 in - East 2.3 mph - N/A   Unknown
4:00 PM 52.7 °F 47.3 °F 82% 30.09 in - East 4.6 mph - N/A   Unknown
5:00 PM 53 °F 48 °F 78% 30.09 in - East 3.5 mph - -  
5:00 PM 52.7 °F 48.0 °F 84% 30.09 in - East 3.5 mph - N/A   Unknown
6:00 PM 52.3 °F 48.4 °F 86% 30.09 in - East 3.5 mph - N/A   Unknown
7:00 PM 51.6 °F 49.3 °F 92% 30.09 in - NE 1.2 mph - N/A   Unknown
8:00 PM 50.2 °F 48.6 °F 94% 30.09 in - NNE 1.2 mph - N/A   Unknown
9:00 PM 50.0 °F 48.4 °F 94% 30.10 in - North 2.3 mph - N/A   Unknown
10:00 PM 50.0 °F 48.6 °F 95% 30.11 in - North 2.3 mph - N/A   Unknown
11:00 PM 50 °F 48 °F 91% 30.13 in - NNE 1.2 mph - -  
11:00 PM 49.6 °F 48.2 °F 95% 30.13 in - NNE 1.2 mph - N/A   Unknown